Home   Weather   Strasbourg   Past weeks
Flag for France

Past Weather in Strasbourg, Alsace, France — Yesterday and Last 2 Weeks

Now
30 °F

Clear.


Feels Like: 30 °F
Forecast: 51 / 39 °F
Wind: 2 mph from Southwest

Location: Strasbourg Airport

Current Time: Feb 18, 2019 at 4:09:44 am

Latest Report: Feb 18, 2019 at 3:30 am


Visibility: 10 mi

Pressure: 30.18 "Hg

Humidity: 93%

Dew Point: 28 °F

Location of StrasbourgLocation

Past Weather in Strasbourg — Graph

°F

Strasbourg Temperature Yesterday

Maximum temperature yesterday: 66 °F (at 4:30 pm)
Minimum temperature yesterday: 27 °F (at 6:00 am)
Average temperature yesterday: 42 °F

High & Low Weather Summary for the Past Weeks

 TemperatureHumidityPressure
High66 °F (Feb 17, 4:30 pm)100% (Feb 4, 5:00 am)30.66 "Hg (Feb 4, 5:00 am)
Low25 °F (Feb 6, 4:00 am)30% (Feb 17, 4:00 pm)29.45 "Hg (Feb 10, 2:30 pm)
Average39 °F79%30.25 "Hg
* Reported Feb 3 3:00 am — Feb 18 3:00 am, Strasbourg. Weather by CustomWeather, © 2019

Note: Actual official high and low records may vary slightly from our data, if they occured in-between our weather recording intervals... More about our weather records

Advertising

Strasbourg Weather History for the Previous 24 Hours

Scroll right to see more
 ConditionsComfort  
Time TempWeatherWind HumidityBarometerVisibility
3:00 am
Mon, Feb 18
30 °FClear.No wind86%30.18 "Hg10 mi
2:30 am32 °FClear.No wind93%30.18 "Hg6 mi
2:00 am32 °FClear.1 mph93%30.18 "Hg6 mi
1:30 am30 °FClear.2 mph93%30.18 "Hg10 mi
1:00 am32 °FClear.1 mph93%30.18 "Hg10 mi
12:30 am32 °FClear.2 mph93%30.18 "Hg10 mi
12:00 am34 °FClear.2 mph87%30.18 "Hg10 mi
11:30 pm
Sun, Feb 17
34 °FClear.2 mph87%30.18 "Hg10 mi
11:00 pm34 °FClear.2 mph81%30.18 "Hg10 mi
10:30 pm37 °FClear.5 mph87%30.18 "Hg10 mi
10:00 pm37 °FClear.3 mph87%30.18 "Hg10 mi
9:30 pm39 °FClear.5 mph81%30.18 "Hg10 mi
9:00 pm39 °FClear.No wind81%30.18 "Hg10 mi
8:30 pm41 °FClear.No wind76%30.18 "Hg10 mi
8:00 pm45 °FClear.2 mph71%30.18 "Hg10 mi
7:30 pm45 °FClear.No wind71%30.18 "Hg10 mi
7:00 pm48 °FClear.3 mph66%30.18 "Hg10 mi
6:30 pm50 °FClear.6 mph58%30.18 "Hg10 mi
6:00 pm54 °FClear.2 mph47%30.18 "Hg10 mi
5:30 pm59 °FSunny.2 mph42%30.18 "Hg10 mi
5:00 pm64 °FSunny.No wind34%30.18 "Hg10 mi
4:30 pm66 °FSunny.2 mph30%30.18 "Hg10 mi
4:00 pm64 °FPassing clouds.5 mph30%30.18 "HgN/A
3:30 pm63 °FSunny.3 mph32%30.18 "Hg10 mi
3:00 pm63 °FPassing clouds.5 mph37%30.21 "HgN/A
2:30 pm61 °FPassing clouds.5 mph36%30.21 "HgN/A
2:00 pm61 °FSunny.2 mph42%30.21 "Hg10 mi
1:30 pm57 °FSunny.2 mph48%30.24 "Hg10 mi
1:00 pm54 °FSunny.2 mph54%30.24 "Hg10 mi
12:30 pm54 °FSunny.2 mph51%30.27 "Hg10 mi
12:00 pm52 °FSunny.3 mph54%30.27 "Hg10 mi
11:30 am48 °FSunny.3 mph58%30.27 "Hg10 mi
11:00 am46 °FPassing clouds.5 mph62%30.27 "HgN/A
10:30 am43 °FSunny.3 mph71%30.27 "Hg10 mi
10:00 am43 °FSunny.3 mph76%30.27 "Hg10 mi
9:30 am37 °FClear.No wind87%30.30 "Hg6 mi
9:00 am34 °FClear.No wind93%30.30 "Hg4 mi
8:30 am30 °FClear.No wind93%30.30 "Hg4 mi
8:00 am28 °FClear.2 mph100%30.30 "Hg4 mi
7:30 am27 °FClear.No wind100%30.30 "Hg4 mi
7:00 am28 °FClear.No wind93%30.27 "Hg4 mi
6:30 am27 °FClear.2 mph100%30.27 "Hg4 mi
6:00 am27 °FClear.2 mph100%30.27 "Hg5 mi
5:30 am28 °FClear.No wind93%30.30 "Hg4 mi
5:00 am30 °FIce fog.2 mph93%30.27 "Hg3 mi
4:30 am30 °FClear.2 mph93%30.27 "Hg4 mi
4:00 am28 °FIce fog.No wind100%30.27 "Hg3 mi
Weather by CustomWeather, © 2019

See weather overview